Location: Oshawa
(43.9000°N, 78.8670°W)
Time: 01:57:16
(UTC-04:00)

PAYLOAD A - Visible Passes

Search period start: 30 September 2014 00:00
Search period end: 10 October 2014 00:00
Orbit: 693 x 832 km, 98.2° (Epoch: 29 September)

Date Brightness Start Highest point End Pass type
(mag) Time Alt. Az. Time Alt. Az. Time Alt. Az.
30 Sep 4.4 19:19:49 10° SE 19:24:59 48° ENE 19:30:10 10° N visible
30 Sep 6.3 20:59:44 10° SSW 21:04:07 25° W 21:08:32 10° NW visible
01 Oct 5.0 20:21:07 10° S 20:26:23 52° W 20:31:41 10° NNW visible
02 Oct 4.1 19:43:28 10° SSE 19:48:53 76° ENE 19:54:18 10° N visible
02 Oct 7.0 21:25:17 10° SW 21:28:23 15° W 21:31:28 10° NW visible
03 Oct 5.9 20:45:42 10° SSW 20:50:31 32° W 20:55:20 10° NNW visible
04 Oct 4.5 20:07:28 10° S 20:12:52 68° WSW 20:18:16 10° NNW visible
05 Oct 4.2 19:30:07 10° SSE 19:35:26 59° ENE 19:40:43 10° N visible
05 Oct 6.6 21:10:49 10° SW 21:14:43 20° W 21:18:37 10° NW visible
06 Oct 5.4 20:31:50 10° SSW 20:36:57 42° W 20:42:02 10° NNW visible
07 Oct 4.2 19:53:56 10° SSE 19:59:22 87° WSW 20:04:46 10° NNW visible
07 Oct 7.1 21:37:06 10° WSW 21:39:01 12° W 21:40:56 10° WNW visible
08 Oct 4.5 19:16:52 10° SE 19:22:00 45° ENE 19:27:04 10° N visible
08 Oct 6.2 20:56:38 10° SSW 21:01:06 26° W 21:05:32 10° NW visible
09 Oct 4.9 20:18:06 10° S 20:23:24 54° W 20:28:38 10° NNW visible
